This is the latest recevied weather packets stored in our database for station/object N5GMJ. If no packets are shown the sender has not sent any weather packets the latest 1 day(s).
| Time | Temp. | Humidity | Pressure | Rain* | Wind** | Luminosity | Snow |
|---|---|---|---|---|---|---|---|
| 1778036486 | 17.78° C | 77% | 1010.4 hPa | 0 mm | 3.13 m/s, 307° | - | - |
| 1778036183 | 17.78° C | 77% | 1009.9 hPa | 0 mm | 0.89 m/s, 278° | - | - |
| 1778035879 | 17.78° C | 77% | 1009.9 hPa | 0 mm | 1.79 m/s, 304° | - | - |
| 1778035577 | 17.78° C | 77% | 1009.9 hPa | 0 mm | 2.24 m/s, 0° | - | - |
| 1778035273 | 17.78° C | 76% | 1009.9 hPa | 0 mm | 0.89 m/s, 355° | - | - |
| 1778034969 | 17.78° C | 76% | 1009.9 hPa | 0 mm | 2.24 m/s, 314° | - | - |
| 1778034667 | 18.33° C | 76% | 1009.6 hPa | 0 mm | 1.79 m/s, 327° | - | - |
| 1778034364 | 18.33° C | 76% | 1009.6 hPa | 0 mm | 1.34 m/s, 329° | - | - |
| 1778034061 | 18.33° C | 75% | 1009.4 hPa | 0 mm | 2.24 m/s, 73° | - | - |
| 1778033759 | 18.33° C | 76% | 1009.6 hPa | 0 mm | 1.79 m/s, 7° | - | - |
| 1778033456 | 18.33° C | 77% | 1009.6 hPa | 0 mm | 0.89 m/s, 306° | - | - |
| 1778033153 | 18.33° C | 77% | 1009.1 hPa | 0 mm | 0.89 m/s, 306° | - | - |
| 1778032850 | 18.33° C | 77% | 1009.2 hPa | 0 mm | 0.45 m/s, 307° | - | - |
| 1778032548 | 18.33° C | 76% | 1009.2 hPa | 0 mm | 0.45 m/s, 296° | - | - |
| 1778032245 | 18.89° C | 75% | 1009.2 hPa | 0 mm | 0 m/s | - | - |
| 1778031942 | 18.89° C | 75% | 1009.1 hPa | 0 mm | 1.34 m/s, 311° | - | - |
| 1778031638 | 18.89° C | 75% | 1008.6 hPa | 0 mm | 1.34 m/s, 294° | - | - |
| 1778031336 | 18.89° C | 75% | 1008.6 hPa | 0 mm | 0.89 m/s, 71° | - | - |
| 1778031032 | 18.89° C | 73% | 1008.3 hPa | 0 mm | 0.89 m/s, 59° | - | - |
| 1778030729 | 18.89° C | 73% | 1008.1 hPa | 0 mm | 1.34 m/s, 355° | - | - |
| 1778030426 | 18.89° C | 73% | 1008.2 hPa | 0 mm | 1.79 m/s, 349° | - | - |
| 1778030128 | 19.44° C | 72% | 1008 hPa | 0 mm | 2.68 m/s, 307° | - | - |
| 1778029819 | 19.44° C | 73% | 1008 hPa | 0 mm | 2.24 m/s, 319° | - | - |
| 1778029519 | 19.44° C | 73% | 1007.5 hPa | 0 mm | 2.24 m/s, 327° | - | - |
| 1778029215 | 19.44° C | 72% | 1007.7 hPa | 0 mm | 2.68 m/s, 323° | - | - |
* Rain latest hour (hover to see other rain measurements)
** Current wind speed in m/s (hover to see current wind gust speed)